Station SWPM4 - 9076070 - S.W. Pier, MI Image indicating link to RSS feed of recent meteorological observations for station SWPM4


Conditions at SWPM4 as of
(12:54 pm EDT)
1654 GMT on 06/23/2024:
     

Click on the graph icon in the table below to see a time series plot of the last five days of that observation.

5-day plot - Wind Direction Wind Direction (WDIR):WNW ( 290 deg true )
5-day plot - Wind Speed Wind Speed (WSPD): 13.0 kts
5-day plot - Wind Gust Wind Gust (GST): 15.9 kts
5-day plot - Atmospheric Pressure Atmospheric Pressure (PRES):29.62 in
5-day plot - Air Temperature Air Temperature (ATMP): 68.4 °F
5-day plot - Water Temperature Water Temperature (WTMP): 57.0 °F
5-day plot - Wind Speed at 10 Meters Wind Speed at 10 meters (WSPD10M): 13.6 kts
5-day plot - Wind Speed at 20 Meters Wind Speed at 20 meters (WSPD20M): 13.6 kts
5-day plot -  Wind Speed, Wind Gust and Atmospheric Pressure Combined plot of Wind Speed, Gust, and Air Pressure
NOS Water Level Observation Network Water Level
Previous observations
TIME
(EDT)
5-day plot - Wind Direction
WDIR
 
5-day plot - Wind Speed
WSPD
kts
5-day plot - Wind Gust
GST
kts
5-day plot - Wave Height
WVHT
ft
5-day plot - Dominant Wave Period
DPD
sec
5-day plot - Average Wave Period
APD
sec
5-day plot - Mean Wave Direction
MWD
 
5-day plot - Atmospheric Pressure
PRES
in
5-day plot - Pressure Tendency
PTDY
in
5-day plot - Air Temperature
ATMP
°F
5-day plot - Water Temperature
WTMP
°F
5-day plot - Dew Point
DEWP
°F
5-day plot - Salinity
SAL
psu
5-day plot - Visibility
VIS
nmi
5-day plot - Tide (above MLLW)
TIDE
ft
2024-06-23 12:48 pmWNW 12.0 15.9----29.61- 68.2 57.0----
2024-06-23 12:42 pm NW 12.0 17.1----29.61- 68.7 57.0----
2024-06-23 12:36 pmWNW 13.0 15.0----29.61- 68.0 57.0----
2024-06-23 12:30 pm NW 12.0 15.9----29.60- 68.4 57.0----
2024-06-23 12:24 pmWNW 13.0 15.0----29.60- 68.4 57.0----
2024-06-23 12:18 pm NW 8.9 12.0----29.60- 68.9 57.0----
2024-06-23 12:12 pm NW 11.1 15.0----29.60- 68.4 57.0----
2024-06-23 12:06 pmWNW 8.9 11.1----29.60- 67.5 57.0----
2024-06-23 12:00 pmWNW 5.1 14.0----29.59- 67.6 57.0----
2024-06-23 11:54 am NW 11.1 15.0----29.59- 67.3 57.0----
2024-06-23 11:48 amNNW 7.0 11.1----29.59- 67.5 57.0----
2024-06-23 11:42 am NW 11.1 13.0----29.59- 66.9 57.0----
2024-06-23 11:36 am NW 8.0 11.1----29.59- 68.9 57.0----
2024-06-23 11:30 am N 6.0 9.9----29.59- 69.8 57.0----
2024-06-23 11:24 amNNE 7.0 11.1----29.58- 70.3 57.0----
2024-06-23 11:18 am N 9.9 14.0----29.58-- 57.0----
2024-06-23 11:12 amNNE 12.0 17.1----29.58-- 57.0----
2024-06-23 11:06 amNNE 5.1 8.9----29.58-- 56.8----
2024-06-23 11:00 amNNE 8.0 13.0----29.58+0.05------
2024-06-23 10:54 amNNE 7.0 11.1----29.58-------
2024-06-23 10:48 am NE 8.9 11.1----29.58- 69.3 56.8----
2024-06-23 10:42 amNNE 11.1 15.9----29.58- 68.5 56.8----
2024-06-23 10:36 am NE 9.9 12.0----29.57- 69.3 56.8----
2024-06-23 10:30 amNNE 9.9 12.0----29.57- 68.7 56.8----
2024-06-23 10:24 amNNE 8.0 13.0----29.57- 68.7 56.8----
2024-06-23 10:18 amNNE 9.9 15.0----29.57-- 56.8----
2024-06-23 10:12 amNNE 11.1 17.1----29.57-- 56.8----
2024-06-23 10:06 amNNE 8.9 15.0----29.56-- 56.8----
2024-06-23 10:00 amNNE 9.9 15.9------ 68.0 56.8----
2024-06-23 09:54 amNNE 9.9 14.0------ 67.8 56.8----
2024-06-23 09:48 amNNE 11.1 14.0----29.55- 67.5 56.8----
2024-06-23 09:42 am N 9.9 15.0----29.55- 66.9 56.8----
2024-06-23 09:36 am N 12.0 15.0----29.55- 66.9 56.8----
2024-06-23 09:30 am N 12.0 17.1----29.55-- 56.8----
2024-06-23 09:24 am N 8.9 12.0----29.55-- 56.8----
2024-06-23 09:18 amNNW 9.9 14.0----29.55- 65.7 56.8----
2024-06-23 09:12 amNNW 8.9 12.0----29.55- 64.9 56.8----
2024-06-23 09:06 amNNW 8.9 12.0----29.55- 64.4 56.8----
2024-06-23 09:00 am NW 8.9 12.0------- 56.8----
2024-06-23 08:54 am NW 11.1 13.0------- 56.8----
2024-06-23 08:48 am NW 9.9 12.0----29.54- 64.4 56.8----
2024-06-23 08:42 am NW 8.0 12.0----29.54- 64.6 56.8----
2024-06-23 08:36 amNNW 8.9 13.0----29.53- 64.9 56.8----
2024-06-23 08:30 amNNW 9.9 11.1----29.53- 65.1 56.8----
2024-06-23 08:24 amNNW 7.0 12.0----29.53- 65.5 56.8----
2024-06-23 08:18 am N 7.0 9.9----29.52- 65.3 56.8----
2024-06-23 08:12 amNNW 4.1 11.1----29.52- 65.1 56.8----
2024-06-23 08:06 amNNW 7.0 8.9----29.52- 64.6 56.8----
2024-06-23 08:00 am NW 8.0 8.9----29.53+0.04- 56.8----
2024-06-23 07:54 am NW 7.0 8.9----29.52-- 56.8----
2024-06-23 07:48 am NW 7.0 8.9----29.52- 63.7 56.8----
2024-06-23 07:42 am NW 7.0 8.9----29.52- 63.7 56.8----
2024-06-23 07:36 am NW 7.0 9.9----29.52- 63.7 56.8----
2024-06-23 07:30 amNNW 8.0 11.1----29.52- 63.7 56.8----
2024-06-23 07:24 amNNW 8.0 9.9----29.51- 63.7 56.8----
2024-06-23 07:18 amNNW 8.0 11.1----29.51-- 56.8----
2024-06-23 07:12 am N 8.0 9.9----29.50-- 56.8----
2024-06-23 07:06 am N 8.0 11.1----29.49-- 56.8----
2024-06-23 07:00 amNNE 7.0 9.9------ 64.4 56.8----
2024-06-23 06:54 am NE 8.9 12.0------ 64.4 56.8----
2024-06-23 06:48 am NE 7.0 14.0----29.49- 64.4 56.8----
2024-06-23 06:42 am NE 9.9 15.9----29.48- 64.2 56.8----
2024-06-23 06:36 am NE 11.1 15.0----29.48- 64.0 56.8----
2024-06-23 06:30 am NE 8.9 14.0----29.48- 63.9 56.8----
2024-06-23 06:24 am NE 11.1 15.0----29.48- 64.0 56.8----
2024-06-23 06:18 am NE 12.0 20.0----29.47- 64.0 56.7----
2024-06-23 06:12 amENE 14.0 21.0----29.47- 64.0 56.8----
2024-06-23 06:06 amENE 15.9 21.0----29.47- 64.0 56.8----
2024-06-23 06:00 am NE 17.1 24.1----29.47-0.04- 56.8----
2024-06-23 05:54 am NE 15.9 22.0----29.48-- 56.8----
2024-06-23 05:48 am NE 17.1 21.0----29.49- 64.4 56.7----
2024-06-23 05:42 am NE 15.0 22.0----29.49- 64.2 56.8----
2024-06-23 05:36 am NE 17.1 20.0----29.49- 64.4 56.7----
2024-06-23 05:30 am NE 15.9 21.0----29.49- 64.4 56.8----
2024-06-23 05:24 amNNE 15.0 20.0----29.49- 64.2 56.8----
2024-06-23 05:18 amNNE 17.1 22.0----29.49- 64.2 56.7----
2024-06-23 05:12 amNNE 14.0 22.9----29.49- 63.9 56.7----
2024-06-23 05:06 amNNE 15.9 22.0----29.49- 64.0 56.7----
2024-06-23 05:00 amNNE 15.9 26.0----29.49- 64.0 56.8----
2024-06-23 04:54 am N 18.1 24.1----29.48- 64.0 56.8----
2024-06-23 04:48 am N 19.0 24.1----29.49- 64.0 56.8----
2024-06-23 04:42 am N 15.0 21.0----29.49- 64.0 56.8----
2024-06-23 04:36 am N 11.1 15.0----29.49- 63.9 56.8----
2024-06-23 04:30 amNNW 8.9 12.0----29.49- 63.5 56.8----
2024-06-23 04:24 amNNW 9.9 13.0----29.49- 63.9 56.8----
2024-06-23 04:18 am N 12.0 15.0----29.49- 64.2 56.8----
2024-06-23 04:12 amNNE 9.9 13.0----29.49- 63.5 56.8----
2024-06-23 04:06 amNNE 11.1 14.0----29.49- 63.5 56.8----
2024-06-23 04:00 amNNE 12.0 17.1----29.49-0.09 63.3 56.8----
2024-06-23 03:54 amNNE 14.0 15.9----29.49- 63.5 56.8----
2024-06-23 03:48 amNNE 11.1 13.0----29.49- 63.3 56.8----
2024-06-23 03:42 am NE 8.0 15.0----29.50- 63.3 56.8----
2024-06-23 03:36 amNNE 11.1 13.0----29.50- 63.5 56.8----
2024-06-23 03:30 amNNE 9.9 14.0----29.51- 63.3 56.8----
2024-06-23 03:24 amNNE 8.0 11.1----29.51- 63.3 56.8----
2024-06-23 03:18 amNNE 8.9 12.0----29.51- 63.7 56.8----
2024-06-23 03:12 amNNE 8.0 12.0----29.52- 63.3 56.8----
2024-06-23 03:06 am NE 5.1 8.0----29.52- 63.3 56.8----
2024-06-23 03:00 am NE 6.0 8.0----29.52-0.09 63.3 56.8----
2024-06-23 02:54 amNNE 6.0 8.0----29.52- 63.3 56.7----
2024-06-23 02:48 amNNE 6.0 8.9----29.52- 63.3 56.7----
2024-06-23 02:42 amNNE 7.0 8.0----29.52- 63.3 56.8----
2024-06-23 02:36 am NE 6.0 8.0----29.52- 63.1 56.8----
2024-06-23 02:30 am NE 6.0 8.9----29.52- 63.3 56.8----
2024-06-23 02:24 amENE 4.1 5.1----29.52- 63.0 56.8----
2024-06-23 02:18 amENE 2.9 6.0----29.52- 63.1 56.8----
2024-06-23 02:12 am NE 4.1 5.1----29.52- 63.1 56.7----
2024-06-23 02:06 amENE 4.1 6.0----29.52- 63.3 56.8----
2024-06-23 02:00 am--------- 63.3 56.7----
2024-06-23 01:54 am--------- 63.3 56.7----
2024-06-23 01:48 amENE 5.1 8.9----29.54- 63.3 56.8----
2024-06-23 01:42 amENE 6.0 9.9----29.54- 63.3 56.8----
2024-06-23 01:36 amENE 7.0 9.9----29.54- 63.1 56.8----
2024-06-23 01:30 am-------29.55-- 56.8----
2024-06-23 01:24 am-------29.55-- 56.8----
2024-06-23 01:18 amENE 7.0 8.9----29.55- 62.8 56.8----
2024-06-23 01:12 amENE 8.0 12.0----29.56- 62.8 56.8----
2024-06-23 01:06 amENE 6.0 8.0----29.57- 62.8 56.8----
2024-06-23 01:00 amENE 7.0 8.9----29.57-0.09 62.8 56.8----
2024-06-23 12:54 amENE 6.0 7.0----29.58- 63.0 56.8----
2024-06-23 12:48 amENE 6.0 7.0----29.59- 62.8 56.8----
2024-06-23 12:42 amENE 7.0 8.9----29.59- 63.0 56.8----
2024-06-23 12:36 am E 8.0 9.9----29.59- 63.0 56.8----
2024-06-23 12:30 amENE 7.0 9.9----29.59- 63.0 56.8----
2024-06-23 12:24 amENE 6.0 8.0----29.60- 62.8 56.8----
2024-06-23 12:18 amENE 8.0 9.9----29.60-- 56.8----
2024-06-23 12:12 am E 7.0 8.0----29.60-- 56.8----
2024-06-23 12:06 am E 7.0 8.0----29.61-- 56.8----
2024-06-23 12:00 am E 5.1 11.1----29.61-0.07 63.5 56.8----
2024-06-22 11:54 pm E 6.0 8.9----29.61- 63.5 56.8----
2024-06-22 11:48 pm E 6.0 8.9----29.61- 63.5 56.8----
2024-06-22 11:42 pm E 6.0 8.9----29.61- 63.3 56.8----
2024-06-22 11:36 pm E 7.0 9.9----29.61- 63.3 56.8----
2024-06-22 11:30 pm E 7.0 8.9----29.62- 63.3 56.8----
2024-06-22 11:24 pm E 5.1 8.9----29.62- 63.7 56.8----
2024-06-22 11:18 pm E 6.0 8.9----29.62- 63.5 56.8----
2024-06-22 11:12 pm E 6.0 8.0----29.63- 63.3 56.8----
2024-06-22 11:06 pm E 5.1 6.0----29.64- 63.5 56.8----
2024-06-22 11:00 pm-------29.64-0.08- 56.8----
2024-06-22 10:54 pm-------29.63-- 56.8----
2024-06-22 10:48 pm-------29.64-- 56.8----
2024-06-22 10:42 pm-------29.64-- 56.8----
2024-06-22 10:36 pm-------29.65-- 56.8----
2024-06-22 10:30 pm NE 6.0 6.0----29.65- 63.0 56.8----
2024-06-22 10:24 pmENE 4.1 5.1----29.66- 63.1 56.8----
2024-06-22 10:18 pmENE 2.9 5.1----29.66- 63.3 56.8----
2024-06-22 10:12 pm E 2.9 6.0----29.67- 63.7 56.8----
2024-06-22 10:06 pm E 4.1 6.0----29.67- 63.7 56.8----
2024-06-22 10:00 pm E 5.1 7.0----29.67-0.08- 56.8----
2024-06-22 09:54 pm E 5.1 7.0----29.67-- 56.8----
2024-06-22 09:48 pm E 5.1 7.0----29.67- 63.5 56.8----
2024-06-22 09:42 pm E 5.1 7.0----29.67- 63.5 56.8----
2024-06-22 09:36 pm E 6.0 8.0----29.67- 63.5 56.8----
2024-06-22 09:30 pm E 6.0 8.0----29.67-------
2024-06-22 09:24 pm E 6.0 7.0----29.67-------
2024-06-22 09:18 pmENE 6.0 7.0----29.68- 63.1 56.8----
2024-06-22 09:12 pm E 7.0 9.9----29.68- 63.0 56.8----
2024-06-22 09:06 pm E 8.0 8.9----29.68- 63.0 56.8----
2024-06-22 09:00 pm E 8.0 9.9----29.69-0.09 63.0 56.8----
2024-06-22 08:54 pm E 8.0 9.9----29.69- 63.1 56.8----
2024-06-22 08:48 pm E 6.0 9.9----29.69- 63.7 56.8----
2024-06-22 08:42 pm E 7.0 8.0----29.70- 64.2 56.8----
2024-06-22 08:36 pm E 6.0 9.9----29.70- 64.0 56.8----
2024-06-22 08:30 pm E 5.1 8.9----29.70- 64.2 56.8----
2024-06-22 08:24 pm E 6.0 9.9----29.71- 64.2 56.8----
2024-06-22 08:18 pm E 7.0 9.9----29.71- 64.2 56.8----
2024-06-22 08:12 pm E 7.0 9.9----29.71- 64.2 56.8----
2024-06-22 08:06 pm E 8.0 11.1----29.72- 64.2 56.8----
2024-06-22 08:00 pm E 8.9 13.0----29.72-0.09 64.2 56.8----
2024-06-22 07:54 pm E 7.0 12.0----29.72- 64.2 56.8----
2024-06-22 07:48 pm E 8.0 12.0------- 56.8----
2024-06-22 07:42 pm E 8.9 12.0------- 56.8----
2024-06-22 07:36 pm E 8.0 9.9------- 56.8----
2024-06-22 07:30 pm E 5.1 8.0----29.73- 64.0 57.0----
2024-06-22 07:24 pm E 6.0 8.0----29.73- 64.0 56.8----
2024-06-22 07:18 pm E 5.1 7.0----29.74- 63.7 57.0----
2024-06-22 07:12 pm E 5.1 7.0----29.74- 63.5 57.0----
2024-06-22 07:06 pm E 6.0 9.9----29.74- 63.7 57.0----
2024-06-22 07:00 pm E 7.0 11.1----29.75-0.09- 57.0----
2024-06-22 06:54 pm E 6.0 11.1----29.75-- 57.0----
2024-06-22 06:48 pm E 8.0 9.9----29.75- 63.9 56.8----
2024-06-22 06:42 pm E 7.0 9.9----29.76- 64.0 56.8----
2024-06-22 06:36 pm E 6.0 8.9----29.76- 64.2 56.8----
2024-06-22 06:30 pm E 6.0 8.9----29.76- 64.2 56.8----
2024-06-22 06:24 pm E 5.1 7.0----29.76- 64.2 56.8----
2024-06-22 06:18 pm E 5.1 7.0----29.77- 64.4 56.8----
2024-06-22 06:12 pmESE 6.0 8.9----29.77- 64.2 56.8----
2024-06-22 06:06 pmESE 6.0 8.9----29.78- 64.2 56.8----
2024-06-22 06:00 pm E 7.0 8.9----29.78-0.08 64.2 56.8----
2024-06-22 05:54 pm E 5.1 8.9----29.78- 64.2 56.8----
2024-06-22 05:48 pm E 6.0 8.0----29.79- 64.2 56.8----
2024-06-22 05:42 pm E 4.1 7.0----29.79- 64.2 56.8----
2024-06-22 05:36 pm E 4.1 7.0----29.79- 64.2 56.8----
2024-06-22 05:30 pmESE 4.1 5.1----29.80-- 57.0----
2024-06-22 05:24 pmESE 2.9 7.0----29.80-- 56.8----
2024-06-22 05:18 pm E 5.1 8.0----29.80- 64.0 57.0----
2024-06-22 05:12 pmESE 4.1 6.0----29.80- 64.0 57.0----
2024-06-22 05:06 pmESE 5.1 7.0----29.80- 64.2 57.0----
2024-06-22 05:00 pm E 6.0 7.0----29.81-0.08 63.9 56.8----
2024-06-22 04:54 pm E 6.0 7.0----29.81- 63.9 56.8----
2024-06-22 04:48 pm E 5.1 8.9----29.82-- 57.0----
2024-06-22 04:42 pmESE 4.1 6.0----29.82-- 57.0----
2024-06-22 04:36 pmESE 4.1 5.1----29.83-- 57.0----
2024-06-22 04:30 pm--------- 64.4 56.8----
2024-06-22 04:24 pm--------- 64.4 56.8----
2024-06-22 04:18 pmESE 4.1 7.0----29.83-- 57.0----
2024-06-22 04:12 pmESE 4.1 6.0----29.83-- 57.0----
2024-06-22 04:06 pmESE 4.1 6.0----29.83-- 57.0----
2024-06-22 04:00 pmESE 5.1 7.0----29.83-0.08 64.0 57.0----
2024-06-22 03:54 pmESE 4.1 7.0----29.83- 64.0 57.0----
2024-06-22 03:48 pm E 5.1 8.0----29.83- 63.9 56.8----
2024-06-22 03:42 pm E 6.0 8.0----29.84- 63.7 56.8----
2024-06-22 03:36 pm E 6.0 8.0----29.84- 63.5 57.0----
2024-06-22 03:30 pm E 5.1 8.0----29.84- 63.7 57.0----
2024-06-22 03:24 pm E 6.0 8.0----29.85- 63.5 57.0----
2024-06-22 03:18 pm E 6.0 8.9----29.85- 63.7 57.0----
2024-06-22 03:12 pm E 7.0 8.9----29.85- 63.7 57.0----
2024-06-22 03:06 pm E 5.1 7.0----29.85- 63.7 57.0----
2024-06-22 03:00 pm E 6.0 8.9----29.85-0.08 63.7 57.0----
2024-06-22 02:54 pm E 6.0 8.9----29.86- 63.1 57.0----
2024-06-22 02:48 pm E 8.0 8.9----29.86- 62.8 57.0----
2024-06-22 02:42 pmENE 5.1 6.0----29.87- 62.8 57.0----
2024-06-22 02:36 pm E 6.0 8.0----29.87- 63.1 57.0----
2024-06-22 02:30 pm E 7.0 9.9----29.87- 63.3 57.0----
2024-06-22 02:24 pm E 5.1 7.0----29.88- 63.7 57.0----
2024-06-22 02:18 pm E 5.1 7.0----29.88- 63.7-----
2024-06-22 02:12 pm E 4.1 6.0----29.88- 63.7-----
2024-06-22 02:06 pm E 1.9 8.0----29.88- 63.7-----
2024-06-22 02:00 pm E 4.1 6.0----29.89-0.06 63.7 57.0----
2024-06-22 01:54 pm E 5.1 7.0----29.89- 63.9 57.0----
2024-06-22 01:48 pmESE 5.1 7.0----29.89- 63.9 57.0----
2024-06-22 01:42 pmESE 4.1 7.0----29.90- 63.9 57.0----
2024-06-22 01:36 pmESE 5.1 7.0----29.90- 63.9 57.0----
2024-06-22 01:30 pm E 5.1 8.0----29.90- 63.9 57.0----
2024-06-22 01:24 pm E 5.1 8.9----29.90- 64.0 57.0----
2024-06-22 01:18 pmESE 6.0 9.9----29.90- 64.0 57.0----
2024-06-22 01:12 pmESE 6.0 8.9----29.90- 63.9 57.0----
2024-06-22 01:06 pmESE 5.1 8.0----29.91- 63.9 57.0----
2024-06-22 01:00 pmESE 6.0 8.0----29.91-0.06 63.9 57.0----
2024-06-22 12:54 pmESE 5.1 7.0----29.91- 63.9 57.0----